Zurück zum Katalog

SL-8 DEB

AktivLEO
NORAD 23007·DEBRIS·🇷🇺 Russia

Gestartet Jun 16, 1993 von Plesetsk Cosmodrome

Loading…

Nächste Überflüge (nächste 24 Stunden)

TLE

AktuellSource: Space-Track

Epoche: Sep 14, 2026, 09:31 UTC

1 23007U 93036C   26257.39670715  .00000655  00000-0  18093-3 0  9993
2 23007  74.0245 307.1341 0011452 241.4173 131.8714 14.48693045742990

Verfolge SL-8 DEB in Echtzeit mit AllMySat

Download on the App Store